Location: Rio Negrinho
(26.2394°S, 49.4999°W)
Time: 02:40:48
(UTC+00:00)

SEDSat Delta rocket - Pass Details

Date: 03 October 2020
Orbit: 533 x 1000 km, 31.4° (Epoch: 20 October)

Event Time Altitude Azimuth Distance (km) Brightness Sun altitude
Rises 23:39:40 0° 273° (W) 3,331 7.7 -31.3°
Reaches altitude 10° 23:42:24 10° 268° (W) 2,319 6.7 -31.8°
Enters shadow 23:46:12 39° 243° (WSW) 1,065 4.6 -32.6°
